When you browse on this site, cookies collect data to enhance your experience and personalize the content and advertising you see.
Visit our Privacy Policy to learn more. By continuing to use the site, you agree to this use of cookies and data.
  • In Switzerland
  • List of Countries
  • For 7 days
  • Water Temperature
  • Satellite Maps
  • Weather Map
  • Weather Widgets
  • user-avatar
    Login

    Hourly Weather Mazari Sharif

    Today, 25 April, Thursday

    Time Temperature Precipitation Wind Pressure Humidity
    00:00 +5°C° 0.4 mm 2 mps 657 mmHg 81%
    01:00 +4°C° 0.4 mm 2 mps 657 mmHg 81%
    02:00 +4°C° 0.3 mm 2 mps 657 mmHg 81%
    03:00 +4°C° 0.3 mm 2 mps 657 mmHg 81%
    04:00 +4°C° 0.3 mm 2 mps 657 mmHg 81%
    05:00 +4°C° 0.2 mm 2 mps 657 mmHg 78%
    06:00 +5°C° 0.2 mm 2 mps 657 mmHg 75%
    07:00 +5°C° 0.2 mm 2 mps 658 mmHg 73%
    08:00 +6°C° 0.2 mm 2 mps 658 mmHg 69%
    09:00 +7°C° 0.2 mm 2 mps 658 mmHg 66%
    10:00 +8°C° 0.2 mm 3 mps 658 mmHg 63%
    11:00 +8°C° 0.3 mm 3 mps 658 mmHg 61%
    12:00 +9°C° 0.3 mm 3 mps 658 mmHg 60%
    13:00 +9°C° 0.3 mm 2 mps 658 mmHg 58%
    14:00 +9°C° 0.2 mm 2 mps 658 mmHg 58%
    15:00 +9°C° 0.2 mm 2 mps 658 mmHg 57%
    16:00 +10°C° 0.2 mm 2 mps 658 mmHg 56%
    17:00 +10°C° 0.1 mm 1 mps 659 mmHg 57%
    18:00 +10°C° 0.1 mm 1 mps 659 mmHg 58%
    19:00 +8°C° 0.1 mm 0 mps 659 mmHg 59%
    20:00 +8°C° 0 mm 0 mps 659 mmHg 61%
    21:00 +8°C° 0 mm 0 mps 659 mmHg 62%
    22:00 +7°C° 0 mm 0 mps 659 mmHg 63%
    23:00 +7°C° 0.1 mm 0 mps 659 mmHg 65%

    Tomorrow, 26 April, Friday

    Time Temperature Precipitation Wind Pressure Humidity
    00:00 +7°C° 0.1 mm 0 mps 658 mmHg 66%
    01:00 +7°C° 0.1 mm 0 mps 658 mmHg 68%
    02:00 +6°C° 0.1 mm 0 mps 658 mmHg 69%
    03:00 +6°C° 0.1 mm 0 mps 658 mmHg 70%
    04:00 +6°C° 0.1 mm 0 mps 657 mmHg 71%
    05:00 +6°C° 0 mm 0 mps 658 mmHg 68%
    06:00 +7°C° 0 mm 0 mps 658 mmHg 65%
    07:00 +8°C° 0 mm 0 mps 659 mmHg 62%
    08:00 +10°C° 0 mm 1 mps 659 mmHg 58%
    09:00 +10°C° 0 mm 1 mps 659 mmHg 54%
    10:00 +11°C° 0 mm 1 mps 659 mmHg 50%
    11:00 +12°C° 0 mm 2 mps 659 mmHg 48%
    12:00 +13°C° 0 mm 2 mps 659 mmHg 46%
    13:00 +13°C° 0 mm 3 mps 659 mmHg 45%
    14:00 +14°C° 0 mm 2 mps 658 mmHg 45%
    15:00 +14°C° 0 mm 2 mps 658 mmHg 45%
    16:00 +14°C° 0 mm 2 mps 658 mmHg 45%
    17:00 +13°C° 0 mm 2 mps 658 mmHg 47%
    18:00 +12°C° 0 mm 2 mps 658 mmHg 48%
    19:00 +12°C° 0 mm 1 mps 658 mmHg 49%
    20:00 +11°C° 0 mm 1 mps 658 mmHg 51%
    21:00 +11°C° 0 mm 1 mps 658 mmHg 53%
    22:00 +10°C° 0 mm 0 mps 658 mmHg 55%
    23:00 +10°C° 0.1 mm 0 mps 658 mmHg 57%

    Day after tomorrow, 27 April, Saturday

    Time Temperature Precipitation Wind Pressure Humidity
    00:00 +9°C° 0.1 mm 0 mps 658 mmHg 58%
    01:00 +9°C° 0.1 mm 0 mps 657 mmHg 59%
    02:00 +9°C° 0.1 mm 0 mps 657 mmHg 60%
    03:00 +8°C° 0.1 mm 0 mps 657 mmHg 62%
    04:00 +8°C° 0.1 mm 0 mps 657 mmHg 64%
    05:00 +9°C° 0 mm 0 mps 658 mmHg 62%
    06:00 +9°C° 0 mm 0 mps 658 mmHg 60%
    07:00 +10°C° 0 mm 0 mps 659 mmHg 57%
    08:00 +12°C° 0 mm 1 mps 659 mmHg 54%
    09:00 +13°C° 0 mm 2 mps 659 mmHg 51%
    10:00 +14°C° 0 mm 2 mps 659 mmHg 47%
    11:00 +14°C° 0 mm 2 mps 659 mmHg 46%
    12:00 +15°C° 0 mm 2 mps 659 mmHg 44%
    13:00 +16°C° 0 mm 3 mps 658 mmHg 42%
    14:00 +16°C° 0 mm 3 mps 658 mmHg 42%
    15:00 +16°C° 0 mm 2 mps 658 mmHg 42%
    16:00 +16°C° 0 mm 2 mps 658 mmHg 41%
    17:00 +15°C° 0 mm 2 mps 658 mmHg 44%
    18:00 +14°C° 0 mm 1 mps 658 mmHg 46%
    19:00 +14°C° 0 mm 1 mps 658 mmHg 48%
    20:00 +13°C° 0 mm 1 mps 658 mmHg 51%
    21:00 +12°C° 0 mm 0 mps 658 mmHg 53%
    22:00 +11°C° 0 mm 0 mps 658 mmHg 55%
    23:00 +11°C° 0 mm 0 mps 657 mmHg 56%

    28 April, Sunday

    Time Temperature Precipitation Wind Pressure Humidity
    00:00 +10°C° 0 mm 0 mps 657 mmHg 57%
    01:00 +10°C° 0 mm 0 mps 656 mmHg 59%
    02:00 +10°C° 0.1 mm 0 mps 656 mmHg 60%
    03:00 +9°C° 0.1 mm 0 mps 656 mmHg 62%
    04:00 +9°C° 0.1 mm 0 mps 656 mmHg 63%
    05:00 +10°C° 0 mm 0 mps 656 mmHg 59%
    06:00 +11°C° 0 mm 0 mps 657 mmHg 55%
    07:00 +13°C° 0 mm 1 mps 657 mmHg 51%
    08:00 +14°C° 0 mm 1 mps 657 mmHg 48%
    09:00 +15°C° 0 mm 1 mps 657 mmHg 45%
    10:00 +17°C° 0 mm 2 mps 658 mmHg 41%
    11:00 +17°C° 0 mm 2 mps 657 mmHg 39%
    12:00 +18°C° 0 mm 3 mps 657 mmHg 36%
    13:00 +19°C° 0 mm 3 mps 657 mmHg 34%
    14:00 +19°C° 0 mm 3 mps 656 mmHg 34%
    15:00 +19°C° 0 mm 3 mps 656 mmHg 34%
    16:00 +19°C° 0 mm 3 mps 656 mmHg 34%
    17:00 +18°C° 0 mm 2 mps 656 mmHg 38%
    18:00 +17°C° 0 mm 2 mps 656 mmHg 42%
    19:00 +16°C° 0 mm 1 mps 655 mmHg 46%
    20:00 +15°C° 0 mm 1 mps 655 mmHg 49%
    21:00 +15°C° 0 mm 1 mps 655 mmHg 51%
    22:00 +14°C° 0 mm 1 mps 655 mmHg 54%
    23:00 +14°C° 0 mm 1 mps 655 mmHg 55%

    29 April, Monday

    Time Temperature Precipitation Wind Pressure Humidity
    00:00 +14°C° 0 mm 1 mps 654 mmHg 57%
    01:00 +13°C° 0 mm 1 mps 654 mmHg 58%
    02:00 +13°C° 0 mm 1 mps 653 mmHg 59%
    03:00 +13°C° 0 mm 1 mps 653 mmHg 59%
    04:00 +13°C° 0 mm 1 mps 653 mmHg 60%
    05:00 +14°C° 0 mm 1 mps 653 mmHg 56%
    06:00 +15°C° 0 mm 1 mps 654 mmHg 52%
    07:00 +18°C° 0 mm 1 mps 654 mmHg 49%
    08:00 +18°C° 0 mm 2 mps 654 mmHg 45%
    09:00 +19°C° 0 mm 2 mps 654 mmHg 41%
    10:00 +20°C° 0 mm 2 mps 654 mmHg 38%
    11:00 +21°C° 0 mm 3 mps 654 mmHg 36%
    12:00 +22°C° 0 mm 3 mps 653 mmHg 34%
    13:00 +22°C° 0 mm 4 mps 653 mmHg 32%
    14:00 +22°C° 0 mm 4 mps 653 mmHg 32%
    15:00 +22°C° 0 mm 4 mps 653 mmHg 32%
    16:00 +21°C° 0 mm 4 mps 652 mmHg 33%
    17:00 +20°C° 0.1 mm 4 mps 653 mmHg 34%
    18:00 +19°C° 0.1 mm 4 mps 653 mmHg 35%
    19:00 +17°C° 0.1 mm 4 mps 653 mmHg 37%
    20:00 +17°C° 0.3 mm 3 mps 653 mmHg 37%
    21:00 +16°C° 0.3 mm 3 mps 654 mmHg 37%
    22:00 +15°C° 0.3 mm 2 mps 654 mmHg 37%
    23:00 +15°C° 0.3 mm 2 mps 654 mmHg 39%

    30 April, Tuesday

    Time Temperature Precipitation Wind Pressure Humidity
    00:00 +14°C° 0.3 mm 2 mps 653 mmHg 40%
    01:00 +14°C° 0.3 mm 1 mps 653 mmHg 42%
    02:00 +13°C° 0.5 mm 2 mps 653 mmHg 46%
    03:00 +12°C° 0.5 mm 2 mps 653 mmHg 51%
    04:00 +12°C° 0.5 mm 2 mps 653 mmHg 55%
    05:00 +10°C° 0.5 mm 2 mps 654 mmHg 57%
    06:00 +10°C° 0.5 mm 2 mps 654 mmHg 59%
    07:00 +10°C° 0.5 mm 2 mps 655 mmHg 62%
    08:00 +12°C° 0.7 mm 2 mps 655 mmHg 62%
    09:00 +12°C° 0.7 mm 2 mps 655 mmHg 62%
    10:00 +13°C° 0.7 mm 2 mps 655 mmHg 61%
    11:00 +14°C° 0.1 mm 2 mps 655 mmHg 55%
    12:00 +15°C° 0.1 mm 2 mps 656 mmHg 48%
    13:00 +18°C° 0.1 mm 1 mps 656 mmHg 42%
    14:00 +17°C° 0 mm 2 mps 656 mmHg 40%
    15:00 +17°C° 0 mm 2 mps 656 mmHg 39%
    16:00 +18°C° 0 mm 2 mps 656 mmHg 38%
    17:00 +17°C° 0 mm 2 mps 656 mmHg 44%
    18:00 +15°C° 0 mm 2 mps 656 mmHg 49%
    19:00 +14°C° 0 mm 1 mps 656 mmHg 55%
    20:00 +14°C° 0 mm 1 mps 656 mmHg 57%
    21:00 +13°C° 0 mm 1 mps 655 mmHg 58%
    22:00 +12°C° 0 mm 0 mps 655 mmHg 60%
    23:00 +11°C° 0 mm 0 mps 655 mmHg 60%
    Show more